N4YH-13 Weather Reports


time (UTC)temp
C
wind
direction
speed
KPH
gust
KPH
rain 1hr
cm
rain 24hr
cm
rain mn
cm
humidity
%
barometer
mb
20260504042003 10 61 3.2 8.0 0.00 0.00 0.00 69 1015.5
20260504041803 10 58 3.2 8.0 0.00 0.00 0.00 69 1015.5
20260504041603 10 58 3.2 8.0 0.00 0.00 0.00 69 1015.5
20260504041403 10 54 3.2 8.0 0.00 0.00 0.00 69 1015.5
20260504041204 10 52 3.2 8.0 0.00 0.00 0.00 69 1015.5
20260504041004 10 50 3.2 8.0 0.00 0.00 0.00 69 1015.5
20260504040803 10 53 3.2 8.0 0.00 0.00 0.00 70 1015.5
20260504040603 10 53 3.2 8.0 0.00 0.00 0.00 69 1015.5
20260504040403 10 57 3.2 8.0 0.00 0.00 0.00 69 1015.5
20260504040203 10 60 1.6 6.4 0.00 0.00 0.00 69 1015.4
20260504040004 10 63 1.6 4.8 0.00 0.00 0.00 70 1015.5
20260504035803 10 64 1.6 4.8 0.00 0.00 0.00 69 1015.5
20260504035603 10 69 1.6 4.8 0.00 0.00 0.00 69 1015.5
20260504035403 10 69 1.6 4.8 0.00 0.00 0.00 68 1015.5
20260504035203 10 66 1.6 6.4 0.00 0.00 0.00 69 1015.5
20260504035004 10 63 1.6 9.7 0.00 0.00 0.00 68 1015.5
20260504034804 10 59 1.6 9.7 0.00 0.00 0.00 68 1015.5
20260504034604 10 56 1.6 9.7 0.00 0.00 0.00 68 1015.5
20260504034403 10 55 3.2 9.7 0.00 0.00 0.00 68 1015.5
20260504034203 10 54 3.2 9.7 0.00 0.00 0.00 67 1015.5
20260504034003 10 54 3.2 6.4 0.00 0.00 0.00 67 1015.5
20260504033803 10 56 3.2 6.4 0.00 0.00 0.00 68 1015.5
20260504033604 10 56 3.2 8.0 0.00 0.00 0.00 67 1015.5
20260504033404 10 57 3.2 8.0 0.00 0.00 0.00 67 1015.5
20260504033204 10 58 3.2 8.0 0.00 0.00 0.00 67 1015.5
20260504033003 10 61 3.2 8.0 0.00 0.00 0.00 67 1015.5
20260504032803 10 63 3.2 8.0 0.00 0.00 0.00 67 1015.5
20260504032603 10 67 1.6 8.0 0.00 0.00 0.00 67 1015.5
20260504032403 10 68 3.2 8.0 0.00 0.00 0.00 67 1015.5
20260504032203 10 67 1.6 8.0 0.00 0.00 0.00 66 1015.5
20260504032004 10 66 3.2 8.0 0.00 0.00 0.00 65 1015.5
20260504031804 10 63 3.2 8.0 0.00 0.00 0.00 66 1015.5
20260504031603 10 59 3.2 8.0 0.00 0.00 0.00 66 1015.5
20260504031403 10 56 3.2 9.7 0.00 0.00 0.00 66 1015.5
20260504031203 10 55 3.2 9.7 0.00 0.00 0.00 66 1015.5
20260504031003 10 54 3.2 9.7 0.00 0.00 0.00 66 1015.5
20260504030803 10 53 3.2 9.7 0.00 0.00 0.00 66 1015.5
20260504030604 10 55 3.2 9.7 0.00 0.00 0.00 66 1015.5
20260504030404 10 57 3.2 8.0 0.00 0.00 0.00 66 1015.5
20260504030203 10 57 3.2 8.0 0.00 0.00 0.00 66 1015.3
20260504030003 10 56 3.2 8.0 0.00 0.00 0.00 66 1015.3
20260504025803 10 54 3.2 6.4 0.00 0.00 0.00 66 1015.3
20260504025603 11 54 3.2 8.0 0.00 0.00 0.00 65 1015.4
20260504025404 11 55 3.2 8.0 0.00 0.00 0.00 66 1015.4
20260504025204 11 58 3.2 8.0 0.00 0.00 0.00 66 1015.4
20260504025004 11 61 3.2 8.0 0.00 0.00 0.00 65 1015.4
20260504024803 11 66 3.2 8.0 0.00 0.00 0.00 65 1015.4
20260504024603 11 66 3.2 8.0 0.00 0.00 0.00 64 1015.1
20260504024403 11 63 3.2 8.0 0.00 0.00 0.00 64 1015.1
20260504024203 11 56 3.2 8.0 0.00 0.00 0.00 64 1015.1
20260504024004 11 47 3.2 8.0 0.00 0.00 0.00 64 1015.1
20260504023804 11 42 3.2 8.0 0.00 0.00 0.00 64 1015.1
20260504023603 11 42 4.8 8.0 0.00 0.00 0.00 64 1015.1
20260504023403 11 44 4.8 8.0 0.00 0.00 0.00 63 1015.1
20260504023203 11 45 4.8 8.0 0.00 0.00 0.00 63 1015.0
20260504023003 11 47 4.8 8.0 0.00 0.00 0.00 63 1015.0
20260504022803 11 49 4.8 8.0 0.00 0.00 0.00 63 1015.0
20260504022604 11 50 4.8 8.0 0.00 0.00 0.00 63 1015.0
20260504022404 11 49 4.8 8.0 0.00 0.00 0.00 63 1015.0
20260504022203 11 50 4.8 8.0 0.00 0.00 0.00 62 1015.0
20260504022003 11 50 4.8 8.0 0.00 0.00 0.00 62 1015.0
20260504021803 11 50 4.8 8.0 0.00 0.00 0.00 62 1015.0
20260504021603 11 52 3.2 8.0 0.00 0.00 0.00 62 1015.0
20260504021403 11 56 3.2 8.0 0.00 0.00 0.00 63 1015.0
20260504021204 11 57 3.2 8.0 0.00 0.00 0.00 62 1015.0
20260504021004 11 59 3.2 8.0 0.00 0.00 0.00 63 1015.1
20260504020803 11 64 3.2 8.0 0.00 0.00 0.00 62 1015.0
20260504020603 11 65 1.6 4.8 0.00 0.00 0.00 62 1015.0
20260504020403 11 66 1.6 4.8 0.00 0.00 0.00 61 1015.0
20260504020203 12 66 1.6 4.8 0.00 0.00 0.00 62 1015.0
20260504020003 12 66 1.6 4.8 0.00 0.00 0.00 62 1015.0
20260504015804 12 66 1.6 4.8 0.00 0.00 0.00 61 1015.0
20260504015604 12 68 1.6 4.8 0.00 0.00 0.00 61 1015.0
20260504015403 12 69 1.6 4.8 0.00 0.00 0.00 60 1015.0
20260504015203 12 68 3.2 6.4 0.00 0.00 0.00 59 1015.0
20260504015003 12 68 3.2 6.4 0.00 0.00 0.00 60 1015.0
20260504014803 12 67 3.2 9.7 0.00 0.00 0.00 59 1015.0
20260504014604 12 62 3.2 9.7 0.00 0.00 0.00 59 1014.9
20260504014404 12 58 3.2 9.7 0.00 0.00 0.00 59 1014.9
20260504014203 12 59 4.8 9.7 0.00 0.00 0.00 59 1014.9
20260504014003 12 60 4.8 9.7 0.00 0.00 0.00 59 1014.9
20260504013803 12 59 4.8 9.7 0.00 0.00 0.00 59 1014.9
20260504013603 12 61 4.8 9.7 0.00 0.00 0.00 59 1014.9
20260504013403 12 64 4.8 9.7 0.00 0.00 0.00 60 1014.9
20260504013203 12 63 4.8 8.0 0.00 0.00 0.00 60 1014.9
20260504013004 12 62 4.8 8.0 0.00 0.00 0.00 59 1014.9
20260504012803 12 62 4.8 8.0 0.00 0.00 0.00 59 1015.0
20260504012603 12 63 3.2 8.0 0.00 0.00 0.00 59 1014.9
20260504012403 12 63 3.2 6.4 0.00 0.00 0.00 59 1015.0
20260504012203 12 64 3.2 6.4 0.00 0.00 0.00 59 1014.9
20260504012003 12 65 3.2 8.0 0.00 0.00 0.00 58 1014.9
20260504011804 12 63 4.8 8.0 0.00 0.00 0.00 58 1014.9
20260504011604 12 65 4.8 8.0 0.00 0.00 0.00 57 1014.9
20260504011403 12 81 4.8 8.0 0.00 0.00 0.00 57 1014.9
20260504011203 12 101 4.8 8.0 0.00 0.00 0.00 58 1014.9
20260504011003 13 142 4.8 8.0 0.00 0.00 0.00 58 1014.9
20260504010803 13 174 4.8 8.0 0.00 0.00 0.00 57 1014.9
20260504010603 13 185 4.8 8.0 0.00 0.00 0.00 57 1014.9
20260504010404 13 184 3.2 8.0 0.00 0.00 0.00 57 1014.9
20260504010204 13 184 3.2 8.0 0.00 0.00 0.00 56 1014.8
20260504010004 13 185 3.2 8.0 0.00 0.00 0.00 56 1014.8
20260504005803 13 184 3.2 8.0 0.00 0.00 0.00 56 1014.8
20260504005603 13 185 3.2 8.0 0.00 0.00 0.00 56 1014.8
20260504005403 13 185 3.2 8.0 0.00 0.00 0.00 56 1014.8
20260504005203 13 185 3.2 8.0 0.00 0.00 0.00 55 1014.8
20260504005004 13 185 3.2 8.0 0.00 0.00 0.00 55 1014.8
20260504004804 13 184 1.6 8.0 0.00 0.00 0.00 55 1014.9
20260504004603 13 185 1.6 4.8 0.00 0.00 0.00 55 1014.7
20260504004403 13 185 1.6 4.8 0.00 0.00 0.00 55 1014.7
20260504004203 13 185 1.6 3.2 0.00 0.00 0.00 54 1014.7
20260504004003 13 184 1.6 3.2 0.00 0.00 0.00 54 1014.7
20260504003803 13 184 1.6 4.8 0.00 0.00 0.00 53 1014.7
20260504003604 13 184 1.6 4.8 0.00 0.00 0.00 53 1014.7
20260504003404 14 185 1.6 4.8 0.00 0.00 0.00 53 1014.7
20260504003203 14 185 1.6 6.4 0.00 0.00 0.00 53 1014.4
20260504003003 14 185 1.6 6.4 0.00 0.00 0.00 53 1014.4
20260504002803 14 184 1.6 6.4 0.00 0.00 0.00 52 1014.4
20260504002603 14 185 1.6 6.4 0.00 0.00 0.00 52 1014.4
20260504002403 14 185 1.6 6.4 0.00 0.00 0.00 52 1014.4
20260504002204 14 185 1.6 4.8 0.00 0.00 0.00 52 1014.6
20260504002004 15 184 0.0 4.8 0.00 0.00 0.00 51 1014.6
20260504001804 15 184 0.0 1.6 0.00 0.00 0.00 53 1014.6
20260504001603 15 184 0.0 1.6 0.00 0.00 0.00 52 1015.0
20260504001403 15 184 0.0 1.6 0.00 0.00 0.00 52 1015.0
20260504001203 15 185 0.0 3.2 0.00 0.00 0.00 52 1015.0
20260504001004 15 184 1.6 3.2 0.00 0.00 0.00 50 1015.0
20260504000804 15 184 1.6 4.8 0.00 0.00 0.00 49 1015.0
20260504000603 15 184 1.6 6.4 0.00 0.00 0.00 50 1015.0
20260504000403 15 184 1.6 6.4 0.00 0.00 0.00 48 1015.0
20260504000204 15 184 1.6 6.4 0.00 0.00 0.00 49 1014.6
20260504000003 15 185 1.6 6.4 0.00 0.00 0.00 48 1014.6
20260503235803 15 184 0.0 6.4 0.00 0.00 0.00 48 1014.6
20260503235604 15 184 0.0 3.2 0.00 0.00 0.00 48 1014.6
20260503235404 15 184 0.0 3.2 0.00 0.00 0.00 48 1014.7
20260503235203 15 184 0.0 3.2 0.00 0.00 0.00 48 1014.8
20260503235003 16 185 0.0 3.2 0.00 0.00 0.00 47 1014.7
20260503234803 16 185 0.0 3.2 0.00 0.00 0.00 46 1014.7
20260503234603 16 184 0.0 3.2 0.00 0.00 0.00 46 1014.9
20260503234404 16 154 1.6 9.7 0.00 0.00 0.00 46 1014.9
20260503234204 16 141 1.6 9.7 0.00 0.00 0.00 45 1014.9
20260503234003 16 104 1.6 9.7 0.00 0.00 0.00 46 1014.9
20260503233803 16 72 1.6 9.7 0.00 0.00 0.00 45 1014.9
20260503233603 16 58 1.6 9.7 0.00 0.00 0.00 44 1014.9
20260503233403 16 56 1.6 8.0 0.00 0.00 0.00 45 1014.9
20260503233203 16 58 1.6 8.0 0.00 0.00 0.00 45 1014.9
20260503233004 16 59 1.6 8.0 0.00 0.00 0.00 45 1014.9
20260503232803 16 56 1.6 8.0 0.00 0.00 0.00 45 1014.9
20260503232603 16 60 1.6 8.0 0.00 0.00 0.00 44 1014.9
20260503232403 16 57 1.6 8.0 0.00 0.00 0.00 44 1014.9
20260503232203 16 56 1.6 8.0 0.00 0.00 0.00 44 1014.9
20260503232003 16 55 1.6 8.0 0.00 0.00 0.00 43 1014.9
20260503231804 16 59 1.6 6.4 0.00 0.00 0.00 43 1014.9
20260503231604 16 53 1.6 6.4 0.00 0.00 0.00 44 1015.0
20260503231403 16 56 1.6 6.4 0.00 0.00 0.00 44 1015.1
20260503231203 16 50 1.6 9.7 0.00 0.00 0.00 45 1015.0
20260503231003 16 56 1.6 9.7 0.00 0.00 0.00 43 1015.0
20260503230803 16 100 1.6 9.7 0.00 0.00 0.00 42 1015.1
20260503230604 16 170 1.6 9.7 0.00 0.00 0.00 44 1015.0
20260503230404 16 177 3.2 9.7 0.00 0.00 0.00 42 1015.0
20260503230203 16 185 3.2 9.7 0.00 0.00 0.00 43 1015.0
20260503230003 17 185 3.2 9.7 0.00 0.00 0.00 43 1015.0
20260503225803 17 184 3.2 9.7 0.00 0.00 0.00 43 1015.0
20260503225603 17 184 3.2 9.7 0.00 0.00 0.00 44 1015.0
20260503225404 17 184 3.2 9.7 0.00 0.00 0.00 43 1015.0
20260503225204 17 184 3.2 9.7 0.00 0.00 0.00 42 1015.0
20260503225003 17 183 3.2 9.7 0.00 0.00 0.00 43 1015.0
20260503224803 17 178 1.6 9.7 0.00 0.00 0.00 42 1015.0
20260503224603 17 164 1.6 9.7 0.00 0.00 0.00 41 1015.0
20260503224403 17 145 1.6 9.7 0.00 0.00 0.00 41 1015.0
20260503224203 17 107 1.6 9.7 0.00 0.00 0.00 40 1015.0
20260503224003 17 70 1.6 8.0 0.00 0.00 0.00 39 1015.0
20260503223804 17 67 1.6 8.0 0.00 0.00 0.00 39 1015.0
20260503223604 17 60 3.2 8.0 0.00 0.00 0.00 39 1015.0
20260503223404 17 61 3.2 8.0 0.00 0.00 0.00 39 1015.0
20260503223203 17 60 3.2 8.0 0.00 0.00 0.00 39 1015.0
20260503223003 17 60 1.6 8.0 0.00 0.00 0.00 39 1015.0
20260503222803 17 63 1.6 8.0 0.00 0.00 0.00 39 1015.0
20260503222603 17 72 1.6 4.8 0.00 0.00 0.00 41 1015.0
20260503222404 17 71 1.6 6.4 0.00 0.00 0.00 44 1015.1
20260503222204 17 67 3.2 11.3 0.00 0.00 0.00 43 1015.0
20260503222003 17 65 4.8 11.3 0.00 0.00 0.00 42 1015.0
20260503221803 17 58 4.8 11.3 0.00 0.00 0.00 42 1015.0
20260503221603 17 56 4.8 11.3 0.00 0.00 0.00 41 1015.1
20260503221403 17 56 4.8 11.3 0.00 0.00 0.00 39 1015.1
20260503221203 17 55 4.8 12.9 0.00 0.00 0.00 40 1015.1
20260503221004 17 53 3.2 12.9 0.00 0.00 0.00 41 1015.1
20260503220804 17 68 3.2 12.9 0.00 0.00 0.00 42 1015.1
20260503220604 17 84 3.2 12.9 0.00 0.00 0.00 42 1015.1
20260503220403 17 89 3.2 12.9 0.00 0.00 0.00 41 1015.1
20260503220203 17 131 3.2 12.9 0.00 0.00 0.00 41 1015.2
20260503220003 17 166 1.6 8.0 0.00 0.00 0.00 42 1015.2
20260503215803 17 126 1.6 8.0 0.00 0.00 0.00 41 1015.2
20260503215604 17 81 1.6 12.9 0.00 0.00 0.00 42 1015.2
20260503215404 17 103 3.2 12.9 0.00 0.00 0.00 45 1015.2
20260503215203 17 110 3.2 12.9 0.00 0.00 0.00 42 1015.2
20260503215003 17 142 3.2 12.9 0.00 0.00 0.00 42 1015.2
20260503214803 17 131 3.2 12.9 0.00 0.00 0.00 41 1015.2
20260503214603 17 100 4.8 19.3 0.00 0.00 0.00 43 1015.3
20260503214403 17 65 4.8 19.3 0.00 0.00 0.00 42 1015.3
20260503214204 17 56 4.8 19.3 0.00 0.00 0.00 44 1015.3
20260503214004 17 66 4.8 19.3 0.00 0.00 0.00 41 1015.4
20260503213803 17 90 4.8 19.3 0.00 0.00 0.00 41 1015.4
20260503213603 18 128 4.8 12.9 0.00 0.00 0.00 42 1015.4
20260503213403 18 158 4.8 12.9 0.00 0.00 0.00 41 1015.4
20260503213203 18 173 4.8 9.7 0.00 0.00 0.00 41 1015.5
20260503213003 18 172 3.2 11.3 0.00 0.00 0.00 43 1015.5
20260503212804 18 167 3.2 11.3 0.00 0.00 0.00 40 1015.5
20260503212604 18 181 3.2 12.9 0.00 0.00 0.00 40 1015.5
20260503212403 18 175 3.2 12.9 0.00 0.00 0.00 42 1015.5
20260503212203 18 96 3.2 12.9 0.00 0.00 0.00 41 1015.5
20260503212003 18 13 3.2 12.9 0.00 0.00 0.00 44 1015.5
20260503211803 18 44 3.2 12.9 0.00 0.00 0.00 43 1015.5
20260503211603 18 32 3.2 9.7 0.00 0.00 0.00 45 1015.5
20260503211404 18 348 3.2 9.7 0.00 0.00 0.00 42 1015.5
20260503211204 18 323 3.2 8.0 0.00 0.00 0.00 41 1015.5
20260503211003 17 316 3.2 8.0 0.00 0.00 0.00 43 1015.5
20260503210803 17 308 3.2 8.0 0.00 0.00 0.00 46 1015.5
20260503210603 17 353 3.2 8.0 0.00 0.00 0.00 42 1015.4
20260503210403 17 35 3.2 8.0 0.00 0.00 0.00 44 1015.4
20260503210203 17 55 4.8 12.9 0.00 0.00 0.00 43 1015.7
20260503210003 17 57 6.4 14.5 0.00 0.00 0.00 42 1015.7
20260503205804 17 64 6.4 14.5 0.00 0.00 0.00 43 1015.7
20260503205603 17 76 6.4 14.5 0.00 0.00 0.00 42 1015.7
20260503205403 17 96 6.4 14.5 0.00 0.00 0.00 42 1015.7
20260503205203 17 131 4.8 14.5 0.00 0.00 0.00 43 1015.7
20260503205003 17 177 4.8 14.5 0.00 0.00 0.00 44 1015.7
20260503204803 17 187 3.2 11.3 0.00 0.00 0.00 46 1015.7
20260503204603 17 187 3.2 11.3 0.00 0.00 0.00 44 1016.0
20260503204404 17 187 3.2 11.3 0.00 0.00 0.00 46 1016.0
20260503204204 17 187 3.2 11.3 0.00 0.00 0.00 44 1016.0
20260503204003 17 187 1.6 9.7 0.00 0.00 0.00 45 1016.0
20260503203803 17 187 1.6 9.7 0.00 0.00 0.00 46 1016.0
20260503203603 17 187 3.2 9.7 0.00 0.00 0.00 47 1016.0
20260503203403 17 187 3.2 9.7 0.00 0.00 0.00 49 1016.0
20260503203203 17 187 1.6 8.0 0.00 0.00 0.00 53 1016.2
20260503203004 17 187 3.2 8.0 0.00 0.00 0.00 53 1016.2
20260503202803 17 187 3.2 8.0 0.00 0.00 0.00 53 1016.2
20260503202603 17 187 3.2 9.7 0.00 0.00 0.00 53 1016.2
20260503202403 17 187 3.2 9.7 0.00 0.00 0.00 53 1016.2
20260503202203 17 187 3.2 9.7 0.00 0.00 0.00 53 1016.2
20260503202003 17 187 3.2 9.7 0.00 0.00 0.00 53 1016.2
20260503201803 17 187 3.2 9.7 0.00 0.00 0.00 52 1016.2
20260503201604 17 187 3.2 9.7 0.00 0.00 0.00 53 1016.4
20260503201404 17 187 3.2 9.7 0.00 0.00 0.00 53 1016.5
20260503201203 17 187 3.2 9.7 0.00 0.00 0.00 53 1016.5
20260503201003 17 187 3.2 9.7 0.00 0.00 0.00 55 1016.4
20260503200803 17 187 4.8 9.7 0.00 0.00 0.00 55 1016.4
20260503200603 16 187 4.8 9.7 0.00 0.00 0.00 54 1016.5
20260503200403 16 187 4.8 11.3 0.00 0.00 0.00 52 1016.4
20260503200204 16 187 4.8 12.9 0.00 0.00 0.00 55 1016.7
20260503200004 16 187 6.4 14.5 0.00 0.00 0.00 56 1016.7
20260503195803 16 187 6.4 14.5 0.00 0.00 0.00 55 1016.7
20260503195603 16 187 4.8 14.5 0.00 0.00 0.00 56 1016.7
20260503195403 16 187 4.8 14.5 0.00 0.00 0.00 54 1016.7
20260503195203 16 187 4.8 14.5 0.00 0.00 0.00 54 1016.7
20260503195004 16 187 4.8 14.5 0.00 0.00 0.00 57 1016.7
20260503194804 16 187 4.8 14.5 0.00 0.00 0.00 57 1016.7
20260503194603 16 187 6.4 14.5 0.00 0.00 0.00 59 1017.0
20260503194403 16 187 6.4 14.5 0.00 0.00 0.00 55 1017.0
20260503194203 16 187 6.4 14.5 0.00 0.00 0.00 57 1017.0
20260503194003 16 187 4.8 14.5 0.00 0.00 0.00 57 1017.0
20260503193803 16 187 4.8 14.5 0.00 0.00 0.00 58 1017.0
20260503193604 16 187 6.4 14.5 0.00 0.00 0.00 56 1017.0
20260503193403 16 187 6.4 14.5 0.00 0.00 0.00 56 1017.0
20260503193203 16 187 6.4 14.5 0.00 0.00 0.00 56 1017.1
20260503193003 16 187 6.4 14.5 0.00 0.00 0.00 56 1017.1
20260503192803 16 187 6.4 14.5 0.00 0.00 0.00 55 1017.1
20260503192603 16 187 6.4 14.5 0.00 0.00 0.00 55 1017.1
20260503192403 16 185 4.8 9.7 0.00 0.00 0.00 56 1017.1
20260503192204 16 182 4.8 11.3 0.00 0.00 0.00 58 1017.1
20260503192004 16 177 4.8 12.9 0.00 0.00 0.00 55 1017.1
20260503191803 16 176 6.4 16.1 0.00 0.00 0.00 58 1017.1
20260503191603 15 181 6.4 16.1 0.00 0.00 0.00 57 1017.3
20260503191403 15 183 8.0 16.1 0.00 0.00 0.00 58 1017.2
20260503191203 15 184 6.4 16.1 0.00 0.00 0.00 57 1017.3
20260503191003 15 188 6.4 16.1 0.00 0.00 0.00 58 1017.2
20260503190803 15 189 6.4 16.1 0.00 0.00 0.00 56 1017.2
20260503190604 15 187 6.4 16.1 0.00 0.00 0.00 57 1017.3
20260503190404 15 187 6.4 16.1 0.00 0.00 0.00 58 1017.3
20260503190203 15 183 8.0 16.1 0.00 0.00 0.00 58 1017.4
20260503190003 15 181 8.0 16.1 0.00 0.00 0.00 57 1017.4
20260503185803 15 178 8.0 16.1 0.00 0.00 0.00 56 1017.4
20260503185603 15 176 8.0 16.1 0.00 0.00 0.00 55 1017.4
20260503185403 15 175 8.0 16.1 0.00 0.00 0.00 55 1017.4
20260503185204 15 177 8.0 16.1 0.00 0.00 0.00 56 1017.4
20260503185004 15 177 8.0 16.1 0.00 0.00 0.00 55 1017.4
20260503184803 15 176 6.4 16.1 0.00 0.00 0.00 55 1017.4
20260503184603 16 176 4.8 14.5 0.00 0.00 0.00 53 1017.8
20260503184403 16 175 4.8 14.5 0.00 0.00 0.00 53 1017.8
20260503184203 16 173 3.2 11.3 0.00 0.00 0.00 54 1017.8
20260503184003 15 171 4.8 11.3 0.00 0.00 0.00 56 1017.7
20260503183804 15 170 4.8 12.9 0.00 0.00 0.00 55 1017.7
20260503183603 15 168 4.8 17.7 0.00 0.00 0.00 57 1017.7
20260503183403 15 168 4.8 17.7 0.00 0.00 0.00 58 1017.7
20260503183203 15 169 6.4 17.7 0.00 0.00 0.00 56 1017.7
20260503183003 15 166 6.4 17.7 0.00 0.00 0.00 56 1017.7
20260503182803 15 165 6.4 17.7 0.00 0.00 0.00 56 1017.7
20260503182604 15 165 6.4 12.9 0.00 0.00 0.00 54 1017.7
20260503182403 15 160 6.4 12.9 0.00 0.00 0.00 57 1017.7
20260503182203 15 157 6.4 14.5 0.00 0.00 0.00 57 1017.7
20260503182004 15 154 6.4 14.5 0.00 0.00 0.00 58 1017.7
20260503181803 14 154 8.0 16.1 0.00 0.00 0.00 57 1017.7
20260503181603 14 151 9.7 24.1 0.00 0.00 0.00 58 1017.8
20260503181403 14 151 9.7 24.1 0.00 0.00 0.00 56 1017.8
20260503181204 14 155 9.7 24.1 0.00 0.00 0.00 57 1017.8
20260503181004 14 163 9.7 24.1 0.00 0.00 0.00 56 1017.9
20260503180803 14 165 8.0 24.1 0.00 0.00 0.00 57 1017.9
20260503180603 14 177 6.4 16.1 0.00 0.00 0.00 57 1017.9
20260503180403 15 184 6.4 16.1 0.00 0.00 0.00 58 1017.9
20260503180203 15 187 4.8 14.5 0.00 0.00 0.00 55 1018.0
20260503180003 15 187 4.8 14.5 0.00 0.00 0.00 58 1018.0
20260503175804 15 187 6.4 14.5 0.00 0.00 0.00 58 1018.0
20260503175604 14 187 6.4 12.9 0.00 0.00 0.00 60 1018.0
20260503175403 14 187 8.0 17.7 0.00 0.00 0.00 58 1018.0
20260503175203 14 186 8.0 17.7 0.00 0.00 0.00 58 1018.0
20260503175003 14 187 9.7 17.7 0.00 0.00 0.00 58 1018.0
20260503174803 14 190 9.7 17.7 0.00 0.00 0.00 58 1018.0
20260503174604 14 191 9.7 17.7 0.00 0.00 0.00 58 1018.2
20260503174404 14 193 9.7 17.7 0.00 0.00 0.00 62 1018.2
20260503174203 14 194 9.7 17.7 0.00 0.00 0.00 57 1018.2
20260503174003 14 194 9.7 17.7 0.00 0.00 0.00 59 1018.2
20260503173803 14 189 8.0 17.7 0.00 0.00 0.00 58 1018.2
20260503173603 14 184 9.7 17.7 0.00 0.00 0.00 57 1018.2
20260503173403 14 182 9.7 17.7 0.00 0.00 0.00 57 1018.2
20260503173204 14 177 8.0 17.7 0.00 0.00 0.00 59 1018.4
20260503173004 14 176 8.0 17.7 0.00 0.00 0.00 59 1018.4
20260503172803 14 176 8.0 17.7 0.00 0.00 0.00 57 1018.4
20260503172603 14 178 8.0 16.1 0.00 0.00 0.00 55 1018.4
20260503172403 15 175 6.4 16.1 0.00 0.00 0.00 54 1018.4
20260503172203 15 173 4.8 12.9 0.00 0.00 0.00 56 1018.4
20260503172004 15 173 3.2 12.9 0.00 0.00 0.00 56 1018.4
20260503171804 15 173 4.8 12.9 0.00 0.00 0.00 56 1018.4
20260503171603 15 173 3.2 9.7 0.00 0.00 0.00 55 1018.8
20260503171403 15 173 3.2 6.4 0.00 0.00 0.00 55 1018.8
20260503171203 14 173 1.6 11.3 0.00 0.00 0.00 55 1018.8
20260503171003 14 173 3.2 14.5 0.00 0.00 0.00 57 1018.8
20260503170803 14 171 3.2 14.5 0.00 0.00 0.00 61 1018.7
20260503170604 13 170 3.2 14.5 0.00 0.00 0.00 61 1018.7
20260503170403 13 169 3.2 14.5 0.00 0.00 0.00 59 1018.7
20260503170203 13 166 4.8 16.1 0.00 0.00 0.00 60 1018.8
20260503160203 12 190 6.4 12.9 0.00 0.00 0.00 57 1019.4
20260503151003 11 135 4.8 12.9 0.00 0.00 0.00 63 1019.4
20260503150803 11 174 3.2 12.9 0.00 0.00 0.00 64 1019.4
20260503150604 11 177 4.8 12.9 0.00 0.00 0.00 64 1019.4
20260503150403 11 171 4.8 12.9 0.00 0.00 0.00 63 1019.4
20260503150203 11 160 4.8 12.9 0.00 0.00 0.00 64 1019.7
20260503140204 9 181 9.7 19.3 0.00 0.00 0.00 72 1019.4
20260503131404 9 163 4.8 12.9 0.00 0.00 0.00 69 1019.2
20260503131203 9 162 6.4 12.9 0.00 0.00 0.00 70 1019.2
20260503131003 9 160 6.4 12.9 0.00 0.00 0.00 71 1019.2
20260503130803 9 162 4.8 12.9 0.00 0.00 0.00 69 1019.2
20260503130603 9 164 4.8 12.9 0.00 0.00 0.00 71 1019.2
20260503130404 9 165 4.8 9.7 0.00 0.00 0.00 71 1019.2
20260503130204 9 164 4.8 9.7 0.00 0.00 0.00 70 1018.9
20260503120203 7 57 1.6 6.4 0.00 0.00 0.00 78 1018.7
20260503110803 5 51 3.2 9.7 0.00 0.00 0.00 87 1017.7
20260503110604 5 48 4.8 9.7 0.00 0.00 0.00 88 1017.7
20260503110404 5 50 4.8 11.3 0.00 0.00 0.00 89 1017.7
20260503110203 5 51 4.8 11.3 0.00 0.00 0.00 89 1017.7
20260503100204 5 56 6.4 11.3 0.00 0.00 0.00 91 1017.1
20260503090404 5 45 8.0 14.5 0.00 0.00 0.00 89 1017.0
20260503090204 5 46 8.0 14.5 0.00 0.00 0.00 89 1016.9
20260503081604 5 46 6.4 12.9 0.00 0.00 0.00 88 1016.4
20260503081404 5 44 6.4 11.3 0.00 0.00 0.00 88 1016.4
20260503081204 5 40 4.8 11.3 0.00 0.00 0.00 88 1016.4
20260503081003 6 40 4.8 11.3 0.00 0.00 0.00 88 1016.4
20260503080804 6 39 4.8 8.0 0.00 0.00 0.00 88 1016.4
20260503080603 6 39 4.8 8.0 0.00 0.00 0.00 88 1016.4
20260503080404 6 42 4.8 9.7 0.00 0.00 0.00 88 1016.4
20260503080204 6 42 4.8 9.7 0.00 0.00 0.00 88 1016.6
20260503072804 6 51 4.8 9.7 0.00 0.00 0.00 87 1016.6
20260503072604 6 49 4.8 9.7 0.00 0.00 0.00 87 1016.6
20260503072404 6 43 4.8 9.7 0.00 0.00 0.00 87 1016.6
20260503072204 6 43 4.8 9.7 0.00 0.00 0.00 87 1016.6
20260503072003 6 43 4.8 9.7 0.00 0.00 0.00 87 1016.6
20260503071804 6 39 4.8 9.7 0.00 0.00 0.00 87 1016.6
20260503071604 6 37 6.4 16.1 0.00 0.00 0.00 87 1016.4
20260503071404 6 41 6.4 16.1 0.00 0.00 0.00 87 1016.4
20260503071204 6 39 4.8 16.1 0.00 0.00 0.00 87 1016.4
20260503071003 6 37 4.8 16.1 0.00 0.00 0.00 87 1016.4
20260503070804 6 42 4.8 16.1 0.00 0.00 0.00 87 1016.4
20260503070604 6 47 4.8 9.7 0.00 0.00 0.00 87 1016.4
20260503070404 6 50 4.8 9.7 0.00 0.00 0.00 87 1016.4
20260503070203 6 50 6.4 11.3 0.00 0.00 0.00 87 1016.0
20260503060204 6 48 3.2 11.3 0.00 0.00 0.00 88 1016.2
20260503055003 6 38 3.2 9.7 0.00 0.00 0.00 87 1016.2
20260503054803 6 42 4.8 11.3 0.00 0.00 0.00 87 1016.2
20260503054604 6 48 4.8 11.3 0.00 0.00 0.00 87 1016.2
20260503054404 6 55 6.4 11.3 0.00 0.00 0.00 87 1016.2
20260503054204 6 57 6.4 11.3 0.00 0.00 0.00 87 1016.2
20260503054005 6 57 6.4 11.3 0.00 0.00 0.00 87 1016.2
20260503053803 6 56 6.4 11.3 0.00 0.00 0.00 87 1016.2
20260503053604 6 57 6.4 11.3 0.00 0.00 0.00 87 1016.2
20260503053404 6 53 6.4 11.3 0.00 0.00 0.00 87 1016.2
20260503053204 6 51 6.4 14.5 0.00 0.00 0.00 87 1016.1
20260503053004 6 50 6.4 14.5 0.00 0.00 0.00 87 1016.1
20260503052803 6 50 6.4 14.5 0.00 0.00 0.00 87 1016.1
20260503052603 6 47 6.4 14.5 0.00 0.00 0.00 87 1016.1
20260503052404 6 48 6.4 14.5 0.00 0.00 0.00 87 1016.1
20260503052203 6 46 6.4 12.9 0.00 0.00 0.00 87 1016.1
20260503052003 6 49 6.4 12.9 0.00 0.00 0.00 87 1016.1
20260503051804 6 49 6.4 9.7 0.00 0.00 0.00 87 1016.1
20260503051603 6 51 4.8 9.7 0.00 0.00 0.00 87 1015.9
20260503051404 6 51 4.8 9.7 0.00 0.00 0.00 87 1015.9
20260503051204 7 53 4.8 9.7 0.00 0.00 0.00 87 1015.9
20260503051004 6 52 4.8 9.7 0.00 0.00 0.00 87 1015.9
20260503050804 7 51 4.8 9.7 0.00 0.00 0.00 87 1015.9
20260503050604 7 51 4.8 11.3 0.00 0.00 0.00 87 1015.9
20260503050403 7 50 6.4 11.3 0.00 0.00 0.00 87 1015.9
20260503050203 7 51 6.4 11.3 0.00 0.00 0.00 87 1016.0
20260503050005 7 50 6.4 11.3 0.00 0.00 0.00 87 1016.0
20260503045804 7 52 6.4 11.3 0.00 0.00 0.00 87 1016.0
20260503045603 7 50 6.4 9.7 0.00 0.00 0.00 87 1016.0
20260503045404 7 50 6.4 9.7 0.00 0.00 0.00 86 1016.0
20260503045203 7 49 6.4 9.7 0.00 0.00 0.00 86 1016.0
20260503045004 7 49 6.4 11.3 0.00 0.00 0.00 86 1016.0
20260503044804 7 48 6.4 11.3 0.00 0.00 0.00 86 1016.0
20260503044604 7 50 6.4 11.3 0.00 0.00 0.00 86 1016.0
20260503044404 7 51 6.4 11.3 0.00 0.00 0.00 86 1016.0
20260503044204 7 51 4.8 11.3 0.00 0.00 0.00 86 1016.0
20260503044004 7 50 4.8 14.5 0.00 0.00 0.00 86 1016.0
20260503043804 7 54 4.8 14.5 0.00 0.00 0.00 85 1016.0
20260503043603 7 56 6.4 14.5 0.00 0.00 0.00 85 1016.0
20260503043404 7 56 6.4 14.5 0.00 0.00 0.00 85 1016.0
20260503043203 7 57 6.4 14.5 0.00 0.00 0.00 85 1016.0
20260503043004 7 60 6.4 14.5 0.00 0.00 0.00 85 1016.0
20260503042804 7 56 6.4 16.1 0.00 0.00 0.00 85 1016.0
20260503042603 7 55 6.4 16.1 0.00 0.00 0.00 85 1016.0
20260503042404 7 56 6.4 16.1 0.00 0.00 0.00 85 1016.0
20260503042204 7 55 6.4 16.1 0.00 0.00 0.00 85 1016.0